Tracking 19192 objects as of 22-Jun-2018
HD Live streaming from Space Station
objects crossing your sky now

FENGYUN 1C DEB

Track FENGYUN 1C DEB now!
10-day predictions


NORAD ID: 36241
Int'l Code: 1999-025DVS
Perigee: 446.4 km
Apogee: 707.9 km
Inclination: 98.3 °
Period: 96.1 minutes
Semi major axis: 6948 km
RCS: 0.0084 m2 (small)
Launch date: May 10, 1999
Source: People's Republic of China (PRC)
Launch site: Taiyaun Space Center, China (TSC)

Note: This is SATELLITE DEBRIS
aabbcc
Your satellite tracking list
Your tracking list is empty




NASA's NSSDC Master Catalog

Two Line Element Set (TLE):
1 36241U 99025DVS 18172.37302472 +.00004040 +00000-0 +23459-3 0  9992
2 36241 098.3217 320.9927 0188179 099.6729 262.5804 14.98998835504488
Source of the keplerian elements: AFSPC